When you browse on this site, cookies collect data to enhance your experience and personalize the content and advertising you see.
Visit our Privacy Policy to learn more. By continuing to use the site, you agree to this use of cookies and data.
  • In United Kingdom
  • List of Countries
  • For 7 days
  • Water Temperature
  • Satellite Maps
  • Weather Map
  • Weather Widgets
  • user-avatar
    Login

    Hourly Weather Amar

    Today, 21 May, Tuesday

    Time Temperature Precipitation Wind Pressure Humidity
    00:00 +32°C° 0 mm 1 mps 753 mmHg 48%
    01:00 +32°C° 0 mm 1 mps 753 mmHg 48%
    02:00 +31°C° 0 mm 1 mps 753 mmHg 48%
    03:00 +31°C° 0 mm 1 mps 753 mmHg 49%
    04:00 +31°C° 0 mm 1 mps 753 mmHg 48%
    05:00 +31°C° 0 mm 1 mps 754 mmHg 48%
    06:00 +29°C° 0 mm 0 mps 754 mmHg 47%
    07:00 +30°C° 0 mm 0 mps 754 mmHg 45%
    08:00 +31°C° 0 mm 0 mps 755 mmHg 43%
    09:00 +31°C° 0 mm 0 mps 755 mmHg 41%
    10:00 +34°C° 0 mm 1 mps 755 mmHg 39%
    11:00 +35°C° 0 mm 1 mps 755 mmHg 37%
    12:00 +37°C° 0 mm 2 mps 754 mmHg 35%
    13:00 +37°C° 0 mm 2 mps 754 mmHg 34%
    14:00 +37°C° 0 mm 2 mps 754 mmHg 33%
    15:00 +38°C° 0 mm 3 mps 754 mmHg 33%
    16:00 +37°C° 0 mm 3 mps 754 mmHg 32%
    17:00 +37°C° 0 mm 3 mps 753 mmHg 32%
    18:00 +37°C° 0 mm 3 mps 753 mmHg 31%
    19:00 +36°C° 0.1 mm 3 mps 754 mmHg 31%
    20:00 +36°C° 0.1 mm 2 mps 754 mmHg 31%
    21:00 +35°C° 0.1 mm 2 mps 754 mmHg 32%
    22:00 +34°C° 0 mm 1 mps 754 mmHg 32%
    23:00 +33°C° 0 mm 1 mps 754 mmHg 31%

    Tomorrow, 22 May, Wednesday

    Time Temperature Precipitation Wind Pressure Humidity
    00:00 +33°C° 0 mm 1 mps 754 mmHg 31%
    01:00 +34°C° 0 mm 2 mps 754 mmHg 33%
    02:00 +33°C° 0 mm 3 mps 753 mmHg 35%
    03:00 +33°C° 0 mm 4 mps 753 mmHg 37%
    04:00 +34°C° 0 mm 4 mps 753 mmHg 36%
    05:00 +34°C° 0 mm 5 mps 754 mmHg 36%
    06:00 +34°C° 0 mm 5 mps 754 mmHg 36%
    07:00 +36°C° 0 mm 4 mps 754 mmHg 32%
    08:00 +37°C° 0 mm 4 mps 754 mmHg 28%
    09:00 +40°C° 0 mm 4 mps 755 mmHg 24%
    10:00 +40°C° 0 mm 4 mps 755 mmHg 22%
    11:00 +41°C° 0 mm 5 mps 754 mmHg 20%
    12:00 +42°C° 0 mm 5 mps 754 mmHg 17%
    13:00 +41°C° 0 mm 6 mps 754 mmHg 19%
    14:00 +41°C° 0 mm 6 mps 754 mmHg 20%
    15:00 +41°C° 0 mm 7 mps 753 mmHg 21%
    16:00 +39°C° 0 mm 7 mps 753 mmHg 23%
    17:00 +38°C° 0 mm 7 mps 753 mmHg 26%
    18:00 +36°C° 0 mm 6 mps 753 mmHg 29%
    19:00 +35°C° 0 mm 5 mps 753 mmHg 31%
    20:00 +35°C° 0 mm 3 mps 753 mmHg 33%
    21:00 +34°C° 0 mm 2 mps 754 mmHg 34%
    22:00 +34°C° 0 mm 2 mps 753 mmHg 34%
    23:00 +34°C° 0 mm 2 mps 753 mmHg 34%

    Day after tomorrow, 23 May, Thursday

    Time Temperature Precipitation Wind Pressure Humidity
    00:00 +34°C° 0 mm 3 mps 753 mmHg 33%
    01:00 +34°C° 0 mm 3 mps 753 mmHg 31%
    02:00 +34°C° 0 mm 3 mps 752 mmHg 29%
    03:00 +34°C° 0 mm 4 mps 752 mmHg 27%
    04:00 +34°C° 0 mm 4 mps 752 mmHg 27%
    05:00 +34°C° 0 mm 5 mps 753 mmHg 28%
    06:00 +34°C° 0 mm 5 mps 753 mmHg 28%
    07:00 +36°C° 0 mm 5 mps 753 mmHg 25%
    08:00 +39°C° 0 mm 5 mps 753 mmHg 22%
    09:00 +40°C° 0 mm 5 mps 753 mmHg 18%
    10:00 +41°C° 0 mm 4 mps 753 mmHg 17%
    11:00 +42°C° 0 mm 3 mps 753 mmHg 15%
    12:00 +42°C° 0 mm 2 mps 753 mmHg 13%
    13:00 +43°C° 0 mm 3 mps 752 mmHg 15%
    14:00 +42°C° 0 mm 4 mps 752 mmHg 16%
    15:00 +42°C° 0 mm 5 mps 751 mmHg 17%
    16:00 +40°C° 0 mm 5 mps 751 mmHg 22%
    17:00 +39°C° 0 mm 5 mps 751 mmHg 26%
    18:00 +36°C° 0 mm 4 mps 751 mmHg 30%
    19:00 +36°C° 0 mm 3 mps 752 mmHg 31%
    20:00 +35°C° 0 mm 2 mps 752 mmHg 33%
    21:00 +34°C° 0 mm 1 mps 753 mmHg 34%
    22:00 +34°C° 0 mm 1 mps 753 mmHg 32%
    23:00 +33°C° 0 mm 1 mps 752 mmHg 31%

    24 May, Friday

    Time Temperature Precipitation Wind Pressure Humidity
    00:00 +33°C° 0 mm 1 mps 752 mmHg 30%
    01:00 +34°C° 0 mm 2 mps 752 mmHg 28%
    02:00 +35°C° 0 mm 3 mps 752 mmHg 27%
    03:00 +35°C° 0 mm 3 mps 752 mmHg 25%
    04:00 +35°C° 0 mm 3 mps 752 mmHg 25%
    05:00 +35°C° 0 mm 3 mps 752 mmHg 24%
    06:00 +35°C° 0 mm 3 mps 753 mmHg 23%
    07:00 +36°C° 0 mm 2 mps 753 mmHg 21%
    08:00 +38°C° 0 mm 2 mps 753 mmHg 20%
    09:00 +39°C° 0 mm 2 mps 754 mmHg 18%
    10:00 +40°C° 0 mm 1 mps 753 mmHg 17%
    11:00 +40°C° 0 mm 1 mps 753 mmHg 16%
    12:00 +41°C° 0 mm 1 mps 753 mmHg 15%
    13:00 +41°C° 0 mm 2 mps 753 mmHg 16%
    14:00 +42°C° 0 mm 3 mps 752 mmHg 17%
    15:00 +42°C° 0 mm 4 mps 752 mmHg 18%
    16:00 +40°C° 0 mm 4 mps 752 mmHg 22%
    17:00 +38°C° 0 mm 4 mps 752 mmHg 25%
    18:00 +37°C° 0 mm 4 mps 752 mmHg 29%
    19:00 +37°C° 0 mm 3 mps 753 mmHg 28%
    20:00 +37°C° 0 mm 2 mps 753 mmHg 28%
    21:00 +35°C° 0 mm 1 mps 753 mmHg 28%
    22:00 +36°C° 0 mm 2 mps 753 mmHg 26%
    23:00 +36°C° 0 mm 2 mps 753 mmHg 25%

    25 May, Saturday

    Time Temperature Precipitation Wind Pressure Humidity
    00:00 +36°C° 0 mm 2 mps 752 mmHg 24%
    01:00 +35°C° 0 mm 2 mps 752 mmHg 26%
    02:00 +35°C° 0 mm 3 mps 752 mmHg 28%
    03:00 +35°C° 0 mm 3 mps 752 mmHg 29%
    04:00 +35°C° 0 mm 2 mps 752 mmHg 28%
    05:00 +35°C° 0 mm 2 mps 753 mmHg 27%
    06:00 +34°C° 0 mm 1 mps 753 mmHg 25%
    07:00 +35°C° 0 mm 1 mps 753 mmHg 23%
    08:00 +36°C° 0 mm 1 mps 754 mmHg 21%
    09:00 +39°C° 0 mm 1 mps 754 mmHg 18%
    10:00 +39°C° 0 mm 2 mps 753 mmHg 19%
    11:00 +40°C° 0 mm 2 mps 753 mmHg 19%
    12:00 +40°C° 0 mm 3 mps 753 mmHg 20%
    13:00 +40°C° 0 mm 3 mps 752 mmHg 22%
    14:00 +40°C° 0 mm 3 mps 752 mmHg 24%
    15:00 +41°C° 0 mm 4 mps 751 mmHg 26%
    16:00 +40°C° 0 mm 4 mps 751 mmHg 28%
    17:00 +38°C° 0 mm 4 mps 751 mmHg 29%
    18:00 +37°C° 0 mm 4 mps 751 mmHg 31%
    19:00 +37°C° 0 mm 3 mps 752 mmHg 30%
    20:00 +36°C° 0 mm 3 mps 752 mmHg 29%
    21:00 +36°C° 0 mm 2 mps 752 mmHg 27%
    22:00 +36°C° 0 mm 2 mps 752 mmHg 28%
    23:00 +36°C° 0 mm 3 mps 751 mmHg 28%

    26 May, Sunday

    Time Temperature Precipitation Wind Pressure Humidity
    00:00 +35°C° 0 mm 3 mps 751 mmHg 28%
    01:00 +35°C° 0 mm 2 mps 751 mmHg 29%
    02:00 +34°C° 0 mm 2 mps 750 mmHg 30%
    03:00 +32°C° 0 mm 1 mps 750 mmHg 31%
    04:00 +33°C° 0 mm 1 mps 751 mmHg 29%
    05:00 +31°C° 0 mm 0 mps 751 mmHg 28%
    06:00 +31°C° 0 mm 0 mps 751 mmHg 27%
    07:00 +35°C° 0 mm 1 mps 751 mmHg 25%
    08:00 +36°C° 0 mm 1 mps 751 mmHg 23%
    09:00 +38°C° 0 mm 2 mps 752 mmHg 21%
    10:00 +39°C° 0 mm 2 mps 751 mmHg 21%
    11:00 +39°C° 0 mm 2 mps 751 mmHg 20%
    12:00 +40°C° 0 mm 2 mps 751 mmHg 19%
    13:00 +40°C° 0 mm 2 mps 750 mmHg 18%
    14:00 +41°C° 0 mm 2 mps 750 mmHg 17%
    15:00 +41°C° 0 mm 2 mps 750 mmHg 16%
    16:00 +40°C° 0 mm 3 mps 750 mmHg 19%
    17:00 +40°C° 0 mm 4 mps 750 mmHg 22%
    18:00 +40°C° 0 mm 5 mps 750 mmHg 24%
    19:00 +39°C° 0 mm 5 mps 751 mmHg 25%
    20:00 +37°C° 0 mm 4 mps 751 mmHg 25%
    21:00 +36°C° 0 mm 4 mps 751 mmHg 26%
    22:00 +36°C° 0 mm 4 mps 751 mmHg 26%
    23:00 +35°C° 0 mm 4 mps 751 mmHg 26%
    Show more